Change the Weather History Date:

Wednesday, February 19, 2014

  Actual Average Record
Temperature  
Mean Temperature 29 °F 31 °F  
Max Temperature 38 °F 40 °F 59 °F (1995)
Min Temperature 20 °F 22 °F -2 °F (1932)
Degree Days  
Heating Degree Days 36 34  
Month to date heating degree days 831 684  
Since 1 July heating degree days 5090 5073  
Cooling Degree Days 0 0  
Month to date cooling degree days 0 0  
Year to date cooling degree days 0 0  
Moisture  
Dew Point 24 °F    
Average Humidity 76    
Maximum Humidity 96    
Minimum Humidity 56    
Precipitation  
Precipitation 0.08 in 0.02 in 0.29 in (1968)
Month to date precipitation 0.91 0.46  
Year to date precipitation 1.79 1.31  
Snow  
Snow 1.50 in - - ()
Month to date snowfall 12.5  
Year to date snowfall 19.0  
Since 1 July snowfall 32.9  
Snow Depth T in    
Sea Level Pressure  
Sea Level Pressure 29.88 in    
Wind  
Wind Speed 10 mph (NW)    
Max Wind Speed 24 mph    
Max Gust Speed 31 mph    
Visibility 5 miles    
Events Fog , Snow    
T = Trace of Precipitation, MM = Missing Value Source: NWS Daily Summary

Daily Weather History Graph

Daily Weather History Graph

Search for Another Location

Airport or City:

Trip Planner

Search our weather history database for the weather conditions in past years. The results will help you decide how hot, cold, wet, or windy it might be!

Date:

Astronomy

Feb. 19, 2014 Rise Set
Actual Time 7:33 AM MST 6:07 PM MST
Civil Twilight 7:02 AM MST 6:38 PM MST
Nautical Twilight 6:27 AM MST 7:13 PM MST
Astronomical Twilight 5:52 AM MST 7:48 PM MST
Moon 11:26 PM MST (2/19) 9:22 AM MST (2/19)
Length of Visible Light 11h 35m
Length of Day
10h 33m
Waning Gibbous, 79% of the Moon is Illuminated
Feb 19
Waning Gibbous
Feb 22
Last Quarter
Mar 1
New
Mar 8
First Quarter
Mar 16
Full

Hourly Weather History & Observations

Time (MST) Temp. Windchill Dew Point Humidity Pressure Visibility Wind Dir Wind Speed Gust Speed Precip Events Conditions
12:53 AM 36.0 °F 28.5 °F 30.0 °F 79% 29.66 in 10.0 mi WSW 10.4 mph - 0.00 in   Overcast
1:53 AM 35.1 °F 26.4 °F 28.0 °F 76% 29.69 in 10.0 mi WNW 12.7 mph - N/A   Scattered Clouds
2:53 AM 36.0 °F 24.4 °F 21.0 °F 55% 29.72 in 10.0 mi West 23.0 mph 28.8 mph N/A   Clear
3:53 AM 33.1 °F 26.1 °F 25.0 °F 72% 29.75 in 10.0 mi WNW 8.1 mph - N/A   Clear
4:53 AM 32.0 °F 24.8 °F 21.9 °F 66% 29.77 in 10.0 mi WNW 8.1 mph - N/A   Partly Cloudy
5:53 AM 32.0 °F 23.6 °F 21.0 °F 64% 29.79 in 10.0 mi WNW 10.4 mph - N/A   Overcast
6:53 AM 30.9 °F 19.4 °F 19.9 °F 64% 29.82 in 10.0 mi West 17.3 mph 23.0 mph N/A   Scattered Clouds
7:53 AM 30.0 °F 17.2 °F 18.0 °F 61% 29.81 in 10.0 mi West 20.7 mph - N/A   Partly Cloudy
8:53 AM 30.9 °F 21.2 °F 18.0 °F 59% 29.84 in 10.0 mi NNW 12.7 mph - N/A   Mostly Cloudy
9:53 AM 32.0 °F 23.6 °F 19.0 °F 59% 29.84 in 10.0 mi NNW 10.4 mph - N/A   Overcast
10:53 AM 32.0 °F 24.8 °F 21.0 °F 64% 29.86 in 10.0 mi NNW 8.1 mph - N/A   Overcast
11:53 AM 33.1 °F - 23.0 °F 66% 29.86 in 10.0 mi North - - N/A   Overcast
12:53 PM 32.0 °F - 24.1 °F 73% 29.87 in 3.0 mi North - - 0.00 in Snow Light Snow
12:55 PM 33.1 °F - 25.0 °F 72% 29.80 in 2.0 mi North - - 0.00 in Snow Light Snow
12:57 PM 32.0 °F - 25.0 °F 75% 29.79 in 1.2 mi North - - 0.00 in Snow Light Snow
1:06 PM 34.0 °F 29.8 °F 26.1 °F 73% 29.79 in 2.5 mi West 4.6 mph - 0.01 in Snow Light Snow
1:10 PM 35.1 °F 29.3 °F 26.1 °F 70% 29.79 in 8.0 mi WNW 6.9 mph - 0.01 in Snow Light Snow
1:53 PM 35.1 °F 28.6 °F 24.1 °F 64% 29.86 in 10.0 mi NNW 8.1 mph - 0.01 in   Overcast
2:53 PM 33.1 °F 24.9 °F 23.0 °F 66% 29.88 in 5.0 mi NW 10.4 mph - 0.00 in Snow Light Snow
3:05 PM 33.1 °F 24.4 °F 23.0 °F 66% 29.81 in 9.0 mi NW 11.5 mph - 0.00 in   Overcast
3:24 PM 32.0 °F 22.1 °F 23.0 °F 69% 29.83 in 1.8 mi WNW 13.8 mph 21.9 mph 0.00 in Snow Light Snow
3:26 PM 30.9 °F 19.4 °F 24.1 °F 76% 29.83 in 1.2 mi WNW 17.3 mph 24.2 mph 0.00 in Snow Light Snow
3:28 PM 30.9 °F 18.7 °F 25.0 °F 79% 29.83 in 0.8 mi WNW 19.6 mph - 0.00 in Snow Light Snow
3:44 PM 30.0 °F 18.7 °F 27.0 °F 88% 29.83 in 3.0 mi NNW 16.1 mph 24.2 mph 0.00 in Snow Light Snow
3:51 PM 30.2 °F 17.8 °F 26.6 °F 86% 29.84 in 1.0 mi NNW 19.6 mph 29.9 mph 0.00 in Snow Light Snow
3:53 PM 30.0 °F 17.2 °F 26.1 °F 85% 29.92 in 0.5 mi NW 20.7 mph 29.9 mph 0.00 in Fog , Snow Snow
4:07 PM 30.0 °F 19.1 °F 27.0 °F 88% 29.85 in 3.0 mi NW 15.0 mph 21.9 mph 0.01 in Snow Light Snow
4:14 PM 30.0 °F 19.5 °F 27.0 °F 88% 29.85 in 5.0 mi NNW 13.8 mph 21.9 mph 0.01 in Snow Light Snow
4:21 PM 30.0 °F 20.0 °F 26.1 °F 85% 29.84 in 10.0 mi NW 12.7 mph - 0.01 in Snow Light Snow
4:51 PM 30.2 °F 20.2 °F 24.8 °F 80% 29.86 in 9.0 mi NNW 12.7 mph - 0.01 in   Mostly Cloudy
4:53 PM 30.0 °F 21.1 °F 25.0 °F 82% 29.94 in 3.0 mi NNW 10.4 mph - 0.01 in Snow Light Snow
4:57 PM 30.0 °F 20.5 °F 25.0 °F 82% 29.86 in 1.8 mi NNW 11.5 mph - 0.00 in Snow Light Snow
4:59 PM 28.9 °F 17.7 °F 25.0 °F 85% 29.86 in 1.0 mi NW 15.0 mph 20.7 mph 0.00 in Snow Light Snow
5:04 PM 28.9 °F 20.4 °F 26.1 °F 89% 29.87 in 0.5 mi NW 9.2 mph 20.7 mph 0.00 in Fog , Snow Snow
5:21 PM 28.9 °F 18.6 °F 27.0 °F 92% 29.87 in 4.0 mi NW 12.7 mph - 0.01 in Snow Light Snow
5:38 PM 28.9 °F 21.1 °F 27.0 °F 92% 29.88 in 3.0 mi NNW 8.1 mph - 0.01 in Snow Light Snow
5:41 PM 28.9 °F 21.1 °F 27.0 °F 92% 29.88 in 1.5 mi NW 8.1 mph - 0.01 in Snow Light Snow
5:43 PM 28.9 °F 18.2 °F 27.0 °F 92% 29.88 in 1.0 mi NNW 13.8 mph 18.4 mph 0.01 in Snow Light Snow
5:47 PM 28.4 °F 17.0 °F 26.6 °F 93% 29.88 in 0.2 mi NW 15.0 mph 21.9 mph 0.02 in Fog , Snow Snow
5:53 PM 28.0 °F 17.0 °F 26.1 °F 92% 29.97 in 0.2 mi NW 13.8 mph 21.9 mph 0.02 in Fog , Snow Light Snow
5:58 PM 28.0 °F 17.5 °F 25.0 °F 88% 29.89 in 1.0 mi NW 12.7 mph - 0.00 in Snow Light Snow
6:00 PM 28.0 °F 17.0 °F 25.0 °F 88% 29.89 in 1.5 mi NW 13.8 mph - 0.00 in Snow Light Snow
6:05 PM 28.0 °F 17.0 °F 25.0 °F 88% 29.89 in 3.0 mi NW 13.8 mph - 0.00 in Snow Light Snow
6:11 PM 28.0 °F 17.0 °F 25.0 °F 88% 29.89 in 1.8 mi WNW 13.8 mph - 0.00 in Snow Light Snow
6:20 PM 28.0 °F 18.6 °F 25.0 °F 88% 29.90 in 3.0 mi NW 10.4 mph - 0.00 in Snow Light Snow
6:32 PM 28.0 °F 18.1 °F 25.0 °F 88% 29.90 in 1.8 mi NNW 11.5 mph - 0.00 in Snow Light Snow
6:45 PM 28.0 °F 18.6 °F 26.1 °F 92% 29.91 in 3.0 mi NNW 10.4 mph - 0.01 in Snow Light Snow
6:50 PM 28.4 °F 17.0 °F 26.6 °F 93% 29.91 in 1.8 mi NNW 15.0 mph - 0.01 in Snow Light Snow
6:53 PM 28.0 °F 19.3 °F 26.1 °F 92% 30.01 in 1.0 mi NNW 9.2 mph - 0.01 in Snow Light Snow
7:01 PM 28.0 °F 20.0 °F 26.1 °F 92% 29.91 in 0.5 mi North 8.1 mph - 0.02 in Fog , Snow Snow
7:09 PM 27.0 °F 17.3 °F 26.1 °F 96% 29.92 in 1.2 mi NNW 10.4 mph - 0.02 in Snow Light Snow
7:11 PM 27.0 °F 18.0 °F 26.1 °F 96% 29.92 in 2.0 mi NNW 9.2 mph - 0.02 in Snow Light Snow
7:16 PM 27.0 °F 18.7 °F 25.0 °F 92% 29.92 in 7.0 mi NNW 8.1 mph - 0.02 in Snow Light Snow
7:53 PM 28.0 °F 22.8 °F 25.0 °F 88% 30.03 in 9.0 mi NNW 4.6 mph - 0.02 in   Overcast
8:53 PM 26.1 °F 21.9 °F 23.0 °F 88% 30.05 in 10.0 mi WSW 3.5 mph - N/A   Mostly Cloudy
9:53 PM 25.0 °F - 23.0 °F 92% 30.08 in 10.0 mi Calm Calm - N/A   Overcast
10:53 PM 23.0 °F 18.4 °F 21.0 °F 92% 30.10 in 10.0 mi NE 3.5 mph - N/A   Mostly Cloudy
11:53 PM 19.9 °F 14.9 °F 18.0 °F 92% 30.13 in 10.0 mi North 3.5 mph - N/A   Scattered Clouds